GW0539 Weather Reports


Display with metric or nautical units.
time (UTC)temp
F
wind
direction
speed
MPH
gust
MPH
rain 1hr
in
rain 24hr
in
rain mn
in
humidity
%
barometer
mb
20260508033601 51 302 4.0 9.0 0.00 0.00 0.00 43 1021.1
20260508033059 51 315 8.0 11.0 0.00 0.00 0.00 40 1020.8
20260508032555 51 320 5.0 8.0 0.00 0.00 0.00 42 1020.9
20260508032053 52 326 5.0 13.0 0.00 0.00 0.00 42 1020.6
20260508031550 52 323 10.0 13.0 0.00 0.00 0.00 40 1020.7
20260508031046 52 318 7.0 15.0 0.00 0.00 0.00 40 1020.6
20260508030542 52 322 8.0 11.0 0.00 0.00 0.00 39 1020.6
20260508030041 52 327 5.0 8.0 0.00 0.00 0.00 38 1020.3
20260508025536 52 304 5.0 9.0 0.00 0.00 0.00 38 1020.3
20260508025033 51 302 3.0 7.0 0.00 0.00 0.00 40 1020.2
20260508024529 52 322 6.0 7.0 0.00 0.00 0.00 39 1019.9
20260508024026 52 334 7.0 9.0 0.00 0.00 0.00 38 1020.2
20260508023523 52 317 6.0 8.0 0.00 0.00 0.00 38 1019.9
20260508023021 52 328 6.0 13.0 0.00 0.00 0.00 36 1019.9
20260508022516 51 313 2.0 3.0 0.00 0.00 0.00 39 1019.9
20260508022013 52 334 3.0 5.0 0.00 0.00 0.00 38 1019.8
20260508021509 52 301 1.0 2.0 0.00 0.00 0.00 38 1019.8
20260508021005 53 304 2.0 3.0 0.00 0.00 0.00 37 1019.8
20260508020503 53 305 6.0 8.0 0.00 0.00 0.00 34 1019.5
20260508020000 53 305 3.0 3.0 0.00 0.00 0.00 37 1019.7
20260508015458 53 308 2.0 5.0 0.00 0.00 0.00 37 1019.7
20260508014954 53 303 3.0 5.0 0.00 0.00 0.00 36 1019.7
20260508014451 53 301 3.0 6.0 0.00 0.00 0.00 37 1019.5
20260508013947 53 302 4.0 7.0 0.00 0.00 0.00 35 1019.4
20260508013443 54 327 6.0 8.0 0.00 0.00 0.00 33 1019.2
20260508012941 55 316 4.0 8.0 0.00 0.00 0.00 34 1019.4
20260508012437 55 322 5.0 9.0 0.00 0.00 0.00 33 1019.3
20260508011935 54 296 9.0 13.0 0.00 0.00 0.00 33 1019.2
20260508011434 55 312 6.0 7.0 0.00 0.00 0.00 35 1019.2
20260508010930 55 320 8.0 10.0 0.00 0.00 0.00 32 1019.2
20260508010427 55 330 5.0 9.0 0.00 0.00 0.00 34 1019.2
20260508005924 55 313 4.0 6.0 0.00 0.00 0.00 34 1018.8
20260508005421 56 337 5.0 8.0 0.00 0.00 0.00 33 1018.9
20260508004917 57 328 9.0 13.0 0.00 0.00 0.00 31 1018.8
20260508004414 59 338 9.0 14.0 0.00 0.00 0.00 30 1019.2
20260508003910 59 309 9.0 14.0 0.00 0.00 0.00 29 1019.0
20260508003407 58 308 7.0 9.0 0.00 0.00 0.00 30 1019.0
20260508002904 58 269 7.0 9.0 0.00 0.00 0.00 29 1019.0
20260508002401 58 311 6.0 8.0 0.00 0.00 0.00 29 1019.2
20260508001857 57 312 10.0 13.0 0.00 0.00 0.00 31 1019.0
20260508001353 59 309 9.0 15.0 0.00 0.00 0.00 30 1019.0
20260508000850 59 334 9.0 10.0 0.00 0.00 0.00 30 1018.9
20260508000346 57 260 6.0 13.0 0.00 0.00 0.00 30 1019.0
20260507235843 57 296 4.0 6.0 0.00 0.00 0.00 32 1019.0
20260507235340 57 284 11.0 11.0 0.00 0.00 0.00 33 1018.9
20260507234837 57 340 5.0 7.0 0.00 0.00 0.00 32 1018.9
20260507234334 58 346 5.0 7.0 0.00 0.00 0.00 32 1019.0
20260507233830 59 292 6.0 7.0 0.00 0.00 0.00 31 1019.0
20260507233328 60 307 5.0 9.0 0.00 0.00 0.00 30 1019.2
20260507232826 59 324 7.0 13.0 0.00 0.00 0.00 30 1018.9
20260507232322 59 348 8.0 11.0 0.00 0.00 0.00 30 1019.0
20260507231819 58 322 9.0 15.0 0.00 0.00 0.00 32 1019.0
20260507231316 59 316 9.0 15.0 0.00 0.00 0.00 30 1018.9
20260507230812 60 315 12.0 15.0 0.00 0.00 0.00 29 1019.0
20260507230309 60 314 9.0 14.0 0.00 0.00 0.00 30 1019.2
20260507225804 59 314 10.0 18.0 0.00 0.00 0.00 31 1018.9
20260507225300 59 280 6.0 11.0 0.00 0.00 0.00 31 1019.0
20260507224756 59 288 12.0 17.0 0.00 0.00 0.00 31 1018.9
20260507224253 59 308 11.0 15.0 0.00 0.00 0.00 29 1019.0
20260507223749 59 319 9.0 16.0 0.00 0.00 0.00 29 1018.9
20260507223245 60 330 10.0 15.0 0.00 0.00 0.00 29 1019.2
20260507222743 60 358 12.0 14.0 0.00 0.00 0.00 29 1019.0
20260507222239 60 344 11.0 16.0 0.00 0.00 0.00 28 1018.9
20260507221736 60 275 10.0 13.0 0.00 0.00 0.00 29 1018.9
20260507221232 60 321 8.0 14.0 0.00 0.00 0.00 31 1019.3
20260507220729 59 87 10.0 13.0 0.00 0.00 0.00 32 1019.2
20260507220227 59 310 8.0 15.0 0.00 0.00 0.00 32 1019.0
20260507215723 59 295 9.0 16.0 0.00 0.00 0.00 32 1019.3
20260507215221 60 54 13.0 16.0 0.00 0.00 0.00 31 1019.3
20260507214718 60 17 6.0 11.0 0.00 0.00 0.00 33 1019.5
20260507214215 59 335 6.0 10.0 0.00 0.00 0.00 31 1019.8
20260507213710 59 21 5.0 9.0 0.00 0.00 0.00 34 1019.9
20260507213208 57 46 3.0 3.0 0.00 0.00 0.00 34 1019.9
20260507212703 57 332 7.0 11.0 0.00 0.00 0.00 33 1019.9
20260507212200 60 11 10.0 13.0 0.00 0.00 0.00 33 1019.9
20260507211657 59 332 5.0 14.0 0.00 0.00 0.00 32 1019.8
20260507211153 60 347 8.0 13.0 0.00 0.00 0.00 34 1020.0
20260507210650 59 21 9.0 11.0 0.00 0.00 0.00 32 1020.0
20260507210147 59 36 4.0 11.0 0.00 0.00 0.00 33 1019.9
20260507205643 60 354 14.0 16.0 0.00 0.00 0.00 32 1020.2
20260507205140 60 346 6.0 13.0 0.00 0.00 0.00 34 1019.9
20260507204636 60 353 9.0 10.0 0.00 0.00 0.00 31 1020.2
20260507204134 59 23 10.0 13.0 0.00 0.00 0.00 33 1020.2
20260507203632 60 3 11.0 13.0 0.00 0.00 0.00 33 1019.9
20260507203129 60 310 8.0 14.0 0.00 0.00 0.00 34 1020.0
20260507202625 60 315 9.0 13.0 0.00 0.00 0.00 32 1020.3
20260507202121 61 336 13.0 18.0 0.00 0.00 0.00 32 1020.2
20260507201616 60 345 5.0 9.0 0.00 0.00 0.00 34 1019.9
20260507201114 59 81 8.0 10.0 0.00 0.00 0.00 34 1020.3
20260507200609 58 42 4.0 6.0 0.00 0.00 0.00 34 1020.0
20260507200105 56 359 8.0 11.0 0.00 0.00 0.00 36 1020.4
20260507195603 55 98 7.0 9.0 0.00 0.00 0.00 36 1020.3
20260507195100 54 350 3.0 6.0 0.00 0.00 0.00 37 1020.6
20260507194556 55 339 4.0 9.0 0.00 0.00 0.00 37 1020.4
20260507194052 56 353 3.0 7.0 0.00 0.00 0.00 38 1020.4
20260507193549 55 323 1.0 3.0 0.00 0.00 0.00 37 1020.4
20260507193046 54 209 3.0 5.0 0.00 0.00 0.00 36 1020.6
20260507192542 53 312 1.0 2.0 0.00 0.00 0.00 39 1020.6
20260507192039 53 326 1.0 3.0 0.00 0.00 0.00 39 1020.7
20260507191534 53 340 2.0 3.0 0.00 0.00 0.00 38 1020.8
20260507191032 52 320 1.0 2.0 0.00 0.00 0.00 39 1020.9
20260507190529 51 262 3.0 5.0 0.00 0.00 0.00 37 1020.8
20260507190028 52 240 2.0 2.0 0.00 0.00 0.00 38 1021.1
20260507185526 52 294 1.0 2.0 0.00 0.00 0.00 37 1020.9
20260507185022 51 3 2.0 2.0 0.00 0.00 0.00 38 1021.2
20260507184520 51 236 2.0 3.0 0.00 0.00 0.00 38 1021.3
20260507184018 51 331 2.0 3.0 0.00 0.00 0.00 38 1021.4
20260507183513 50 328 1.0 3.0 0.00 0.00 0.00 40 1021.6
20260507183011 50 317 3.0 6.0 0.00 0.00 0.00 38 1021.8
20260507182507 50 332 2.0 3.0 0.00 0.00 0.00 40 1021.7
20260507182003 50 291 3.0 5.0 0.00 0.00 0.00 41 1021.8
20260507181500 49 314 2.0 3.0 0.00 0.00 0.00 42 1022.1
20260507180956 49 326 3.0 5.0 0.00 0.00 0.00 39 1021.8
20260507180453 49 330 5.0 6.0 0.00 0.00 0.00 40 1022.2
20260507175949 49 335 6.0 7.0 0.00 0.00 0.00 43 1021.8
20260507175446 49 347 3.0 3.0 0.00 0.00 0.00 42 1022.0
20260507174944 49 329 4.0 6.0 0.00 0.00 0.00 43 1022.0
20260507174440 49 328 3.0 5.0 0.00 0.00 0.00 42 1022.0
20260507173938 49 314 5.0 7.0 0.00 0.00 0.00 42 1022.0
20260507173435 49 313 4.0 6.0 0.00 0.00 0.00 45 1022.1
20260507172932 49 322 4.0 7.0 0.00 0.00 0.00 42 1022.1
20260507172428 49 341 4.0 5.0 0.00 0.00 0.00 43 1022.0
20260507171924 48 332 4.0 6.0 0.00 0.00 0.00 41 1022.3
20260507171421 48 338 5.0 6.0 0.00 0.00 0.00 43 1022.3
20260507170918 49 313 5.0 8.0 0.00 0.00 0.00 40 1022.3
20260507170415 49 324 3.0 9.0 0.00 0.00 0.00 42 1022.5
20260507165911 48 312 5.0 8.0 0.00 0.00 0.00 43 1022.5
20260507165407 49 299 7.0 8.0 0.00 0.00 0.00 43 1022.8
20260507164903 49 307 4.0 7.0 0.00 0.00 0.00 43 1022.8
20260507164400 49 305 3.0 9.0 0.00 0.00 0.00 43 1022.8
20260507163857 50 326 7.0 10.0 0.00 0.00 0.00 43 1022.6
20260507163354 50 315 7.0 10.0 0.00 0.00 0.00 43 1022.7
20260507162851 50 319 11.0 14.0 0.00 0.00 0.00 41 1022.6
20260507162346 50 344 9.0 14.0 0.00 0.00 0.00 43 1022.7
20260507161844 50 313 13.0 15.0 0.00 0.00 0.00 41 1022.8
20260507161340 51 329 10.0 17.0 0.00 0.00 0.00 41 1022.5
20260507160837 50 344 12.0 15.0 0.00 0.00 0.00 40 1022.6
20260507160332 50 325 10.0 14.0 0.00 0.00 0.00 39 1022.8
20260507155829 50 313 8.0 13.0 0.00 0.00 0.00 41 1022.7
20260507155325 50 288 3.0 13.0 0.00 0.00 0.00 42 1022.7
20260507154822 49 4 5.0 6.0 0.00 0.00 0.00 40 1022.8
20260507154319 48 1 5.0 7.0 0.00 0.00 0.00 43 1022.8
20260507153816 48 288 3.0 8.0 0.00 0.00 0.00 45 1022.8
20260507153312 48 305 6.0 13.0 0.00 0.00 0.00 43 1022.8
20260507152809 47 322 9.0 13.0 0.00 0.00 0.00 43 1023.0
20260507152306 47 305 4.0 8.0 0.00 0.00 0.00 44 1023.1
20260507151801 45 267 4.0 7.0 0.00 0.00 0.00 44 1023.1
20260507151257 44 212 5.0 7.0 0.00 0.00 0.00 43 1022.8
20260507150754 44 258 3.0 3.0 0.00 0.00 0.00 42 1023.1
20260507150251 43 265 4.0 6.0 0.00 0.00 0.00 43 1023.1
20260507145747 42 262 5.0 6.0 0.00 0.00 0.00 44 1023.3
20260507145244 42 248 4.0 8.0 0.00 0.00 0.00 48 1023.1
20260507144741 40 282 3.0 5.0 0.00 0.00 0.00 56 1023.2
20260507144239 38 318 2.0 2.0 0.00 0.00 0.00 66 1023.2
20260507143735 36 309 0.0 2.0 0.00 0.00 0.00 70 1023.5
20260507143232 34 310 1.0 2.0 0.00 0.00 0.00 71 1023.6
20260507142728 34 309 1.0 1.0 0.00 0.00 0.00 75 1023.6
20260507142225 33 348 3.0 3.0 0.00 0.00 0.00 74 1023.7
20260507141721 33 354 5.0 6.0 0.00 0.00 0.00 78 1023.9
20260507141219 33 338 2.0 6.0 0.00 0.00 0.00 80 1023.7
20260507140714 35 287 0.0 1.0 0.00 0.00 0.00 70 1023.6
20260507140212 33 256 3.0 5.0 0.00 0.00 0.00 68 1023.6
20260507135709 32 232 3.0 5.0 0.00 0.00 0.00 75 1023.6
20260507135206 31 271 2.0 3.0 0.00 0.00 0.00 72 1023.7
20260507134702 29 208 3.0 5.0 0.00 0.00 0.00 76 1023.6
20260507134159 28 265 3.0 3.0 0.00 0.00 0.00 78 1023.6
20260507133654 29 285 1.0 2.0 0.00 0.00 0.00 74 1023.7
20260507133152 27 281 1.0 2.0 0.00 0.00 0.00 78 1023.7
20260507132649 26 283 1.0 2.0 0.00 0.00 0.00 78 1024.0
20260507132145 25 299 0.0 1.0 0.00 0.00 0.00 83 1024.0
20260507131643 23 293 0.0 2.0 0.00 0.00 0.00 87 1023.7
20260507131140 23 293 1.0 1.0 0.00 0.00 0.00 88 1024.0
20260507130636 22 287 1.0 2.0 0.00 0.00 0.00 89 1023.6
20260507130134 21 265 3.0 3.0 0.00 0.00 0.00 90 1024.0
20260507125633 20 242 3.0 3.0 0.00 0.00 0.00 93 1023.7
20260507125130 19 293 0.0 1.0 0.00 0.00 0.00 94 1023.9
20260507124626 18 289 1.0 1.0 0.00 0.00 0.00 95 1023.9
20260507124124 18 285 1.0 2.0 0.00 0.00 0.00 95 1023.7
20260507123622 17 305 1.0 1.0 0.00 0.00 0.00 95 1023.9
20260507123119 17 287 2.0 2.0 0.00 0.00 0.00 95 1023.7
20260507122614 18 292 0.0 1.0 0.00 0.00 0.00 94 1023.6
20260507122110 18 293 0.0 1.0 0.00 0.00 0.00 94 1023.3
20260507121606 18 287 0.0 1.0 0.00 0.00 0.00 94 1023.2
20260507121102 18 286 1.0 1.0 0.00 0.00 0.00 94 1023.6
20260507120558 18 280 1.0 2.0 0.00 0.00 0.00 93 1023.5
20260507120055 18 258 3.0 3.0 0.00 0.00 0.00 95 1023.3
20260507115551 18 295 1.0 1.0 0.00 0.00 0.00 95 1023.5
20260507115047 18 296 0.0 0.0 0.00 0.00 0.00 94 1023.5
20260507114543 18 296 0.0 1.0 0.00 0.00 0.00 95 1023.2
20260507114041 18 290 0.0 1.0 0.00 0.00 0.00 95 1023.5
20260507113538 18 290 0.0 0.0 0.00 0.00 0.00 94 1023.2
20260507113035 18 289 0.0 1.0 0.00 0.00 0.00 95 1023.1
20260507112533 18 272 3.0 3.0 0.00 0.00 0.00 94 1023.3
20260507112029 18 288 0.0 1.0 0.00 0.00 0.00 95 1023.3
20260507111526 18 280 2.0 2.0 0.00 0.00 0.00 95 1023.3
20260507111023 18 293 0.0 0.0 0.00 0.00 0.00 94 1023.2
20260507110519 19 289 1.0 1.0 0.00 0.00 0.00 95 1023.2
20260507110016 19 284 2.0 2.0 0.00 0.00 0.00 95 1023.2
20260507105513 18 291 0.0 0.0 0.00 0.00 0.00 95 1023.3
20260507105009 19 285 2.0 2.0 0.00 0.00 0.00 95 1023.2
20260507104507 18 280 2.0 2.0 0.00 0.00 0.00 96 1023.1
20260507104003 18 295 1.0 1.0 0.00 0.00 0.00 95 1023.3
20260507103500 19 272 2.0 3.0 0.00 0.00 0.00 95 1023.1
20260507102955 18 288 1.0 1.0 0.00 0.00 0.00 95 1023.2
20260507102452 19 287 1.0 1.0 0.00 0.00 0.00 93 1023.1
20260507101948 19 287 1.0 1.0 0.00 0.00 0.00 94 1023.1
20260507101443 19 289 0.0 1.0 0.00 0.00 0.00 94 1023.0
20260507100940 19 272 2.0 2.0 0.00 0.00 0.00 94 1023.0
20260507100438 19 289 0.0 0.0 0.00 0.00 0.00 93 1023.1
20260507095936 19 282 1.0 2.0 0.00 0.00 0.00 94 1023.3
20260507095433 19 290 0.0 1.0 0.00 0.00 0.00 94 1023.3
20260507094930 19 278 2.0 2.0 0.00 0.00 0.00 94 1023.2
20260507094426 19 280 1.0 2.0 0.00 0.00 0.00 94 1023.5
20260507093923 19 283 1.0 2.0 0.00 0.00 0.00 95 1023.2
20260507093421 19 294 0.0 0.0 0.00 0.00 0.00 94 1023.3
20260507092920 19 295 0.0 1.0 0.00 0.00 0.00 94 1023.2
20260507092415 19 298 1.0 1.0 0.00 0.00 0.00 94 1023.6
20260507091912 19 292 1.0 1.0 0.00 0.00 0.00 93 1023.3
20260507091408 20 288 0.0 1.0 0.00 0.00 0.00 93 1023.3
20260507090904 20 282 1.0 1.0 0.00 0.00 0.00 93 1023.5
20260507090401 20 256 3.0 3.0 0.00 0.00 0.00 93 1023.5
20260507085858 20 245 3.0 5.0 0.00 0.00 0.00 94 1023.3
20260507085354 20 275 2.0 2.0 0.00 0.00 0.00 94 1023.3
20260507084852 20 229 4.0 5.0 0.00 0.00 0.00 94 1023.3
20260507084348 20 264 2.0 2.0 0.00 0.00 0.00 94 1023.2
20260507083845 20 289 0.0 1.0 0.00 0.00 0.00 94 1023.6
20260507083342 20 283 1.0 2.0 0.00 0.00 0.00 93 1023.2
20260507082838 21 269 2.0 3.0 0.00 0.00 0.00 93 1023.3
20260507082333 21 276 2.0 3.0 0.00 0.00 0.00 93 1023.3
20260507081831 21 243 4.0 5.0 0.00 0.00 0.00 93 1023.5
20260507081327 21 261 3.0 3.0 0.00 0.00 0.00 93 1023.6
20260507080824 21 262 3.0 5.0 0.00 0.00 0.00 94 1023.2
20260507080320 21 229 5.0 6.0 0.00 0.00 0.00 94 1023.3
20260507075815 21 296 0.0 1.0 0.00 0.00 0.00 94 1023.5
20260507075312 21 257 3.0 3.0 0.00 0.00 0.00 94 1023.6
20260507074809 21 282 1.0 3.0 0.00 0.00 0.00 94 1023.5
20260507074306 21 287 1.0 1.0 0.00 0.00 0.00 94 1023.3
20260507073803 22 284 2.0 3.0 0.00 0.00 0.00 94 1023.3
20260507073300 21 227 3.0 5.0 0.00 0.00 0.00 95 1023.3
20260507072757 21 219 6.0 8.0 0.00 0.00 0.00 95 1023.5
20260507072254 21 260 3.0 5.0 0.00 0.00 0.00 96 1023.2
20260507071752 21 284 1.0 2.0 0.00 0.00 0.00 96 1023.2
20260507071248 22 281 2.0 2.0 0.00 0.00 0.00 95 1023.3
20260507070745 22 285 1.0 2.0 0.00 0.00 0.00 95 1023.1
20260507070242 22 302 2.0 2.0 0.00 0.00 0.00 95 1023.1
20260507065738 22 292 1.0 1.0 0.00 0.00 0.00 95 1023.3
20260507065235 22 242 4.0 6.0 0.00 0.00 0.00 95 1023.0
20260507064733 22 276 2.0 2.0 0.00 0.00 0.00 96 1023.2
20260507064232 22 290 1.0 1.0 0.00 0.00 0.00 96 1023.1
20260507063728 22 253 3.0 5.0 0.00 0.00 0.00 96 1023.1
20260507063225 23 253 3.0 5.0 0.00 0.00 0.00 96 1023.1
20260507062722 23 286 1.0 1.0 0.00 0.00 0.00 97 1023.1
20260507062220 23 288 1.0 1.0 0.00 0.00 0.00 96 1023.0
20260507061717 23 251 4.0 5.0 0.00 0.00 0.00 96 1023.1
20260507061215 23 272 2.0 2.0 0.00 0.00 0.00 96 1023.1
20260507060713 24 275 2.0 2.0 0.00 0.00 0.00 96 1023.1
20260507060209 24 283 1.0 2.0 0.00 0.00 0.00 96 1022.7
20260507055705 24 267 3.0 3.0 0.00 0.01 0.01 96 1023.0
20260507055201 24 267 3.0 3.0 0.00 0.01 0.01 96 1022.5
20260507054657 24 286 1.0 1.0 0.00 0.01 0.01 96 1022.6
20260507054154 24 259 3.0 3.0 0.00 0.01 0.01 96 1022.7
20260507053652 24 271 2.0 3.0 0.00 0.01 0.01 96 1022.6
20260507053150 24 267 3.0 3.0 0.00 0.01 0.01 96 1022.7
20260507052648 25 264 3.0 5.0 0.00 0.01 0.01 96 1022.3
20260507052144 25 270 2.0 2.0 0.00 0.01 0.01 96 1022.6
20260507051642 25 278 1.0 3.0 0.00 0.01 0.01 96 1022.2
20260507051138 25 209 4.0 5.0 0.00 0.01 0.01 96 1022.3
20260507050635 25 284 0.0 3.0 0.00 0.01 0.01 96 1022.5
20260507050132 25 280 1.0 3.0 0.00 0.01 0.01 96 1022.2
20260507045629 26 266 2.0 3.0 0.00 0.01 0.01 96 1022.5
20260507045126 26 278 2.0 2.0 0.00 0.01 0.01 96 1022.1
20260507044622 26 266 2.0 3.0 0.00 0.01 0.01 95 1022.3
20260507044119 26 224 4.0 5.0 0.00 0.01 0.01 95 1022.5
20260507043615 26 251 3.0 3.0 0.00 0.01 0.01 95 1022.3
20260507043107 26 263 3.0 3.0 0.00 0.01 0.01 95 1022.1
20260507042603 26 275 2.0 5.0 0.00 0.01 0.01 94 1022.2
20260507042058 27 274 2.0 3.0 0.00 0.01 0.01 94 1022.1
20260507041555 27 276 1.0 5.0 0.00 0.01 0.01 94 1022.2
20260507041052 27 233 5.0 7.0 0.00 0.01 0.01 93 1022.2
20260507040549 27 238 3.0 6.0 0.00 0.01 0.01 93 1022.1
20260507040045 27 226 3.0 5.0 0.00 0.01 0.01 94 1022.1
20260507035541 27 245 3.0 3.0 0.00 0.01 0.01 93 1022.2
20260507035038 28 220 5.0 6.0 0.00 0.01 0.01 93 1022.0
20260507034534 28 253 4.0 5.0 0.00 0.01 0.01 92 1022.0
20260507034032 28 262 2.0 3.0 0.00 0.01 0.01 92 1021.8